PIA462 OPSD-OPLA

Flight info

Callsign PIA462
Flight time 0h 57m
Altitude 32000
Route DCT DELDA J125 RN/N0469F310 Z306 INDEK J121 AKBER AKBER1B
Aircraft A320/M-SDE3FGHIRWY/LB1

Departure

Time 2026-04-25 02:20
Airport Skardu International Airport (OPSD)

Arrival

Time 2026-04-25 03:18
Airport Allama Iqbal International Airport (OPLA)
Time Latitude Longitude Altitude Speed Heading
2026-04-25 02:04 35.33069 75.54094 7319 ft 0 kts 146°
2026-04-25 02:14 35.33067 75.54096 7319 ft 2 kts 146°
2026-04-25 02:15 35.33082 75.54116 7319 ft 7 kts
2026-04-25 02:15 35.33139 75.54138 7319 ft 9 kts 44°
2026-04-25 02:15 35.33175 75.54206 7319 ft 11 kts 57°
2026-04-25 02:15 35.33224 75.54298 7319 ft 14 kts 57°
2026-04-25 02:16 35.33245 75.54391 7319 ft 11 kts 151°
2026-04-25 02:16 35.33165 75.54450 7318 ft 17 kts 147°
2026-04-25 02:16 35.33063 75.54530 7317 ft 18 kts 147°
2026-04-25 02:16 35.32955 75.54617 7316 ft 20 kts 147°
2026-04-25 02:17 35.32840 75.54739 7316 ft 22 kts 109°
2026-04-25 02:17 35.32776 75.54901 7318 ft 21 kts 116°
2026-04-25 02:17 35.32720 75.55043 7318 ft 15 kts 115°
2026-04-25 02:17 35.32701 75.55099 7319 ft 3 kts 94°
2026-04-25 02:18 35.32714 75.55109 7319 ft 4 kts 21°
2026-04-25 02:18 35.32735 75.55100 7319 ft 0 kts 326°
2026-04-25 02:19 35.32735 75.55099 7319 ft 0 kts 326°
2026-04-25 02:19 35.32751 75.55086 7318 ft 21 kts 326°
2026-04-25 02:20 35.33124 75.54790 7317 ft 104 kts 327°
2026-04-25 02:20 35.33925 75.54150 7322 ft 169 kts 326°
2026-04-25 02:20 35.34943 75.53324 7885 ft 177 kts 326°
2026-04-25 02:20 35.35998 75.52470 8504 ft 189 kts 326°
2026-04-25 02:21 35.37122 75.51544 9233 ft 196 kts 320°
2026-04-25 02:21 35.38169 75.50484 10129 ft 192 kts 319°
2026-04-25 02:21 35.39167 75.49493 10823 ft 181 kts 321°
2026-04-25 02:21 35.40177 75.48513 11095 ft 189 kts 321°
2026-04-25 02:22 35.41236 75.47465 11276 ft 205 kts 320°
2026-04-25 02:22 35.42399 75.46301 11422 ft 226 kts 320°
2026-04-25 02:22 35.43659 75.45035 11649 ft 243 kts 320°
2026-04-25 02:22 35.45009 75.43667 12008 ft 258 kts 317°
2026-04-25 02:23 35.46279 75.42084 12611 ft 263 kts 311°
2026-04-25 02:23 35.47454 75.40354 13258 ft 265 kts 305°
2026-04-25 02:23 35.48530 75.38497 13937 ft 269 kts 309°
2026-04-25 02:23 35.49731 75.36734 14607 ft 271 kts 314°
2026-04-25 02:24 35.51163 75.35205 15247 ft 275 kts 321°
2026-04-25 02:24 35.52696 75.33782 15851 ft 278 kts 323°
2026-04-25 02:24 35.54270 75.32380 16443 ft 281 kts 323°
2026-04-25 02:24 35.55741 75.30802 17010 ft 282 kts 304°
2026-04-25 02:25 35.56608 75.28655 17561 ft 283 kts 289°
2026-04-25 02:25 35.57301 75.26375 18063 ft 290 kts 289°
2026-04-25 02:25 35.58004 75.23958 18189 ft 311 kts 288°
2026-04-25 02:25 35.58752 75.21385 18315 ft 329 kts 288°
2026-04-25 02:26 35.59545 75.18665 18448 ft 347 kts 288°
2026-04-25 02:26 35.60377 75.15795 18579 ft 366 kts 288°
2026-04-25 02:26 35.60950 75.13812 18661 ft 377 kts 288°
2026-04-25 02:26 35.61838 75.10708 18788 ft 392 kts 286°
2026-04-25 02:27 35.62285 75.07323 19054 ft 401 kts 267°
2026-04-25 02:27 35.61790 75.03954 19491 ft 405 kts 249°
2026-04-25 02:27 35.60463 75.00961 20007 ft 407 kts 233°
2026-04-25 02:27 35.58719 74.98218 20551 ft 408 kts 232°
2026-04-25 02:28 35.56962 74.95462 21035 ft 410 kts 233°
2026-04-25 02:28 35.55291 74.92619 21512 ft 412 kts 235°
2026-04-25 02:28 35.53772 74.89641 21947 ft 413 kts 242°
2026-04-25 02:28 35.52421 74.86461 22398 ft 416 kts 243°
2026-04-25 02:29 35.51094 74.83301 22864 ft 417 kts 243°
2026-04-25 02:29 35.49791 74.80117 23262 ft 419 kts 244°
2026-04-25 02:29 35.48522 74.76884 23655 ft 421 kts 245°
2026-04-25 02:29 35.47283 74.73624 23935 ft 423 kts 246°
2026-04-25 02:30 35.46046 74.70342 24291 ft 425 kts 246°
2026-04-25 02:30 35.44801 74.67047 24660 ft 426 kts 246°
2026-04-25 02:30 35.43545 74.63747 25031 ft 428 kts 245°
2026-04-25 02:30 35.42277 74.60442 25401 ft 429 kts 245°
2026-04-25 02:31 35.41001 74.57133 25715 ft 430 kts 245°
2026-04-25 02:31 35.39716 74.53811 26037 ft 432 kts 245°
2026-04-25 02:31 35.38426 74.50488 26374 ft 433 kts 245°
2026-04-25 02:31 35.37126 74.47153 26678 ft 434 kts 245°
2026-04-25 02:32 35.35822 74.43808 26972 ft 436 kts 245°
2026-04-25 02:32 35.34517 74.40456 27250 ft 437 kts 245°
2026-04-25 02:32 35.33207 74.37087 27523 ft 438 kts 245°
2026-04-25 02:32 35.31897 74.33713 27798 ft 439 kts 245°
2026-04-25 02:33 35.30581 74.30325 28066 ft 441 kts 245°
2026-04-25 02:33 35.29246 74.26901 28293 ft 440 kts 245°
2026-04-25 02:33 35.27921 74.23524 28558 ft 439 kts 245°
2026-04-25 02:33 35.26601 74.20161 28897 ft 438 kts 245°
2026-04-25 02:34 35.25286 74.16807 29244 ft 436 kts 245°
2026-04-25 02:34 35.23979 74.13472 29512 ft 435 kts 245°
2026-04-25 02:34 35.22676 74.10142 29834 ft 433 kts 245°
2026-04-25 02:34 35.21377 74.06827 30173 ft 432 kts 245°
2026-04-25 02:35 35.19936 74.03617 30503 ft 430 kts 238°
2026-04-25 02:35 35.18099 74.00735 30748 ft 432 kts 229°
2026-04-25 02:35 35.16059 73.98045 31052 ft 431 kts 229°
2026-04-25 02:35 35.14029 73.95363 31332 ft 429 kts 230°
2026-04-25 02:36 35.12002 73.92681 31598 ft 429 kts 230°
2026-04-25 02:36 35.09985 73.90009 31902 ft 428 kts 230°
2026-04-25 02:36 35.07968 73.87338 32143 ft 428 kts 230°
2026-04-25 02:37 35.03928 73.81986 32191 ft 429 kts 231°
2026-04-25 02:37 34.99873 73.76628 32184 ft 430 kts 230°
2026-04-25 02:38 34.95818 73.71285 32181 ft 430 kts 230°
2026-04-25 02:38 34.91747 73.65938 32177 ft 430 kts 231°
2026-04-25 02:39 34.87687 73.60599 32172 ft 429 kts 231°
2026-04-25 02:39 34.83634 73.55263 32169 ft 429 kts 231°
2026-04-25 02:40 34.79460 73.50067 32158 ft 433 kts 223°
2026-04-25 02:40 34.74176 73.46429 32140 ft 445 kts 205°
2026-04-25 02:41 34.68348 73.43839 32134 ft 446 kts 205°
2026-04-25 02:41 34.62525 73.41257 32119 ft 446 kts 206°
2026-04-25 02:42 34.56694 73.38653 32122 ft 446 kts 206°
2026-04-25 02:42 34.50868 73.36048 32126 ft 447 kts 206°
2026-04-25 02:43 34.45032 73.33468 32102 ft 447 kts 206°
2026-04-25 02:43 34.39198 73.30898 32094 ft 446 kts 206°
2026-04-25 02:44 34.33358 73.28326 32083 ft 448 kts 205°
2026-04-25 02:44 34.27389 73.26046 32078 ft 451 kts 202°
2026-04-25 02:45 34.21434 73.23727 32069 ft 449 kts 205°
2026-04-25 02:45 34.15564 73.21199 32058 ft 448 kts 206°
2026-04-25 02:46 34.09698 73.18624 32054 ft 448 kts 206°
2026-04-25 02:46 34.03682 73.16526 32044 ft 458 kts 193°
2026-04-25 02:47 33.97291 73.15909 32031 ft 461 kts 190°
2026-04-25 02:47 33.90884 73.15337 32000 ft 463 kts 191°
2026-04-25 02:48 33.84462 73.14752 31979 ft 463 kts 191°
2026-04-25 02:48 33.78028 73.14170 31978 ft 464 kts 191°
2026-04-25 02:49 33.71589 73.13588 31977 ft 464 kts 191°
2026-04-25 02:49 33.65146 73.13005 31981 ft 465 kts 190°
2026-04-25 02:50 33.58685 73.12913 31980 ft 475 kts 179°
2026-04-25 02:50 33.52125 73.14016 31973 ft 476 kts 178°
2026-04-25 02:51 33.45571 73.15116 31977 ft 476 kts 178°
2026-04-25 02:51 33.39008 73.16208 31970 ft 476 kts 178°
2026-04-25 02:52 33.32458 73.17304 31972 ft 475 kts 178°
2026-04-25 02:52 33.25915 73.18406 31962 ft 474 kts 178°
2026-04-25 02:53 33.19376 73.19508 31962 ft 474 kts 178°
2026-04-25 02:53 33.12846 73.20607 31955 ft 474 kts 178°
2026-04-25 02:54 33.06305 73.21693 31954 ft 475 kts 178°
2026-04-25 02:54 32.99759 73.22777 31961 ft 476 kts 178°
2026-04-25 02:55 32.93212 73.23863 31950 ft 476 kts 178°
2026-04-25 02:55 32.86640 73.24955 31937 ft 476 kts 178°
2026-04-25 02:56 32.80089 73.26167 31928 ft 481 kts 171°
2026-04-25 02:56 32.73860 73.29294 31939 ft 495 kts 151°
2026-04-25 02:57 32.68304 73.34229 31944 ft 500 kts 147°
2026-04-25 02:57 32.62792 73.39245 31911 ft 499 kts 147°
2026-04-25 02:58 32.57276 73.44251 31899 ft 499 kts 147°
2026-04-25 02:58 32.51755 73.49247 31889 ft 500 kts 147°
2026-04-25 02:59 32.46224 73.54250 31892 ft 499 kts 146°
2026-04-25 02:59 32.40711 73.59234 31452 ft 497 kts 147°
2026-04-25 02:59 32.37940 73.61735 30096 ft 506 kts 147°
2026-04-25 03:00 32.35125 73.64274 28803 ft 508 kts 147°
2026-04-25 03:00 32.32335 73.66791 26909 ft 506 kts 146°
2026-04-25 03:00 32.29519 73.69324 25269 ft 510 kts 146°
2026-04-25 03:00 32.26711 73.71851 24350 ft 504 kts 146°
2026-04-25 03:01 32.23952 73.74336 23517 ft 496 kts 146°
2026-04-25 03:01 32.21222 73.76791 22649 ft 490 kts 146°
2026-04-25 03:01 32.18521 73.79212 21827 ft 485 kts 146°
2026-04-25 03:01 32.15845 73.81606 21026 ft 480 kts 146°
2026-04-25 03:02 32.13200 73.83973 20260 ft 475 kts 146°
2026-04-25 03:02 32.10578 73.86323 19515 ft 471 kts 146°
2026-04-25 03:02 32.07991 73.88646 18781 ft 465 kts 146°
2026-04-25 03:02 32.05431 73.90946 18073 ft 460 kts 146°
2026-04-25 03:03 32.02894 73.93214 17421 ft 456 kts 146°
2026-04-25 03:03 32.00383 73.95455 16770 ft 449 kts 146°
2026-04-25 03:03 31.97903 73.97664 16147 ft 444 kts 146°
2026-04-25 03:03 31.95452 73.99841 15580 ft 438 kts 146°
2026-04-25 03:04 31.93040 74.01990 15018 ft 433 kts 146°
2026-04-25 03:04 31.91427 74.03449 14610 ft 430 kts 145°
2026-04-25 03:04 31.89086 74.05606 14050 ft 425 kts 144°
2026-04-25 03:05 31.84362 74.09658 12876 ft 413 kts 155°
2026-04-25 03:05 31.81769 74.10995 12259 ft 403 kts 163°
2026-04-25 03:05 31.79140 74.12064 11608 ft 399 kts 165°
2026-04-25 03:05 31.76525 74.13112 10991 ft 396 kts 164°
2026-04-25 03:06 31.73963 74.14118 10849 ft 380 kts 163°
2026-04-25 03:06 31.71507 74.15097 10709 ft 367 kts 163°
2026-04-25 03:06 31.69108 74.15914 10566 ft 350 kts 170°
2026-04-25 03:06 31.66771 74.16430 10430 ft 332 kts 172°
2026-04-25 03:07 31.64578 74.16889 10303 ft 309 kts 172°
2026-04-25 03:07 31.62523 74.17316 10017 ft 294 kts 172°
2026-04-25 03:07 31.60526 74.17728 9451 ft 290 kts 172°
2026-04-25 03:07 31.58539 74.18126 8873 ft 290 kts 172°
2026-04-25 03:08 31.56551 74.18513 8486 ft 290 kts 172°
2026-04-25 03:08 31.54572 74.18919 8291 ft 288 kts 172°
2026-04-25 03:08 31.52526 74.19281 8290 ft 306 kts 176°
2026-04-25 03:08 31.50386 74.19517 8294 ft 311 kts 177°
2026-04-25 03:09 31.48232 74.19735 8307 ft 311 kts 177°
2026-04-25 03:09 31.46071 74.19950 8299 ft 312 kts 177°
2026-04-25 03:09 31.43916 74.20067 8287 ft 304 kts 188°
2026-04-25 03:09 31.41934 74.19516 8293 ft 288 kts 199°
2026-04-25 03:10 31.40038 74.18833 8158 ft 282 kts 200°
2026-04-25 03:10 31.38163 74.18146 7783 ft 282 kts 200°
2026-04-25 03:10 31.36301 74.17461 7410 ft 280 kts 200°
2026-04-25 03:10 31.34456 74.16769 7034 ft 278 kts 199°
2026-04-25 03:11 31.32562 74.16441 6657 ft 276 kts 175°
2026-04-25 03:11 31.30800 74.17162 6518 ft 265 kts 146°
2026-04-25 03:11 31.29567 74.18717 6217 ft 262 kts 116°
2026-04-25 03:11 31.29114 74.20752 5707 ft 263 kts 87°
2026-04-25 03:12 31.29380 74.22877 5151 ft 265 kts 73°
2026-04-25 03:12 31.29950 74.24934 4712 ft 267 kts 68°
2026-04-25 03:12 31.30576 74.26970 4340 ft 265 kts 68°
2026-04-25 03:12 31.31200 74.28980 4030 ft 260 kts 68°
2026-04-25 03:13 31.31807 74.30911 3920 ft 247 kts 69°
2026-04-25 03:13 31.32390 74.32763 3797 ft 238 kts 67°
2026-04-25 03:13 31.33033 74.34501 3671 ft 228 kts 63°
2026-04-25 03:13 31.33704 74.36139 3522 ft 219 kts 63°
2026-04-25 03:14 31.34354 74.37732 3246 ft 216 kts 59°
2026-04-25 03:14 31.35278 74.39075 3132 ft 211 kts 37°
2026-04-25 03:14 31.36528 74.39924 3122 ft 206 kts 18°
2026-04-25 03:14 31.37885 74.40204 3096 ft 195 kts
2026-04-25 03:15 31.39224 74.40228 2921 ft 191 kts
2026-04-25 03:15 31.40540 74.40251 2731 ft 186 kts 359°
2026-04-25 03:15 31.41833 74.40273 2455 ft 185 kts 359°
2026-04-25 03:15 31.43093 74.40294 2200 ft 176 kts 360°
2026-04-25 03:16 31.44283 74.40315 2001 ft 164 kts
2026-04-25 03:16 31.45392 74.40335 1779 ft 155 kts
2026-04-25 03:16 31.46449 74.40355 1570 ft 152 kts
2026-04-25 03:16 31.47498 74.40379 1361 ft 150 kts
2026-04-25 03:17 31.48551 74.40402 1153 ft 149 kts
2026-04-25 03:17 31.49593 74.40419 940 ft 149 kts
2026-04-25 03:17 31.50627 74.40442 766 ft 149 kts
2026-04-25 03:17 31.51600 74.40449 720 ft 122 kts
2026-04-25 03:18 31.52266 74.40459 719 ft 71 kts
2026-04-25 03:18 31.52610 74.40463 717 ft 38 kts
2026-04-25 03:18 31.52787 74.40479 718 ft 17 kts 40°
2026-04-25 03:18 31.52802 74.40613 718 ft 16 kts 92°
2026-04-25 03:19 31.52727 74.40674 718 ft 14 kts 179°
2026-04-25 03:19 31.52632 74.40674 717 ft 13 kts 180°
2026-04-25 03:19 31.52547 74.40674 717 ft 11 kts 180°
2026-04-25 03:19 31.52474 74.40674 717 ft 10 kts 180°
2026-04-25 03:20 31.52419 74.40697 717 ft 8 kts 133°
2026-04-25 03:20 31.52407 74.40753 717 ft 7 kts 90°
2026-04-25 03:20 31.52406 74.40801 721 ft 5 kts 97°
2026-04-25 03:20 31.52390 74.40834 718 ft 6 kts 135°
2026-04-25 03:21 31.52329 74.40846 720 ft 10 kts 180°
2026-04-25 03:21 31.52263 74.40845 719 ft 8 kts 180°
2026-04-25 03:21 31.52210 74.40846 721 ft 7 kts 170°
2026-04-25 03:21 31.52172 74.40873 717 ft 7 kts 129°
2026-04-25 03:22 31.52169 74.40923 717 ft 6 kts 91°
2026-04-25 03:22 31.52169 74.40951 717 ft 0 kts 90°